Content
SEND FEEDBACK

Daily
Averages
Monthly
Summary
United States of America

NEWCASTLE, NEBRASKA


Home > North America > United States > Nebraska
Elevation: 1300 feet     Latitude: 42 39N     Longitude: 096 52W

WEATHER
 
SELECT A DAY
Number of Records: 122,817;   Date Range: 7/11/05 - 9/16/14
 
SHARE

PRINT THIS DATA

[ ← Previous Day ]
WEATHER ALMANAC - FEBRUARY 13, 2013
[ Next Day → ]
[ °C ]   °F
Weather ElementAverageHighLow
Temperature37.8 °F53.4 °F (2:35 pm)22.8 °F (6:55 am)
Dewpoint26.3 °F30.7 °F (10:55 pm)21.2 °F (6:35 am)
Humidity67.5 %94 % (1:55 am)32 % (3:55 pm)
Barometer29.77 in29.89 in (12:35 am)29.68 in (3:15 pm)
Wind Speed8.4 mph19.6 mph (3:55 pm)
Wind Gust27.6 mph (4:15 pm)
Weather ElementAverage
Visibility10 mi
Wind DirectionSSW (211 °)

Weather ElementTotal
Precipitation---
Heating Degree Days26.9 (Base 65)
Averaged from 70 records on February 13, 2013
WEATHER CONDITIONS BREAKOUT
WIND DIRECTION BREAKOUT
WEATHER BY HOUR - FEBRUARY 13, 2013
[ °C ]   °F
Local TimeTemperatureDewpointHumidityBarometerVisibilityWind DirectionWind SpeedGust SpeedPrecipitationEventsConditions
12:35 AM26.6 °F23.4 °F88 %29.89 in10.0 miCalmClear
12:55 AM26.2 °F23.9 °F91 %29.88 in10.0 miSW (230°)3.5 mphClear
1:15 AM26.2 °F23.7 °F90 %29.88 in10.0 miCalmClear
1:35 AM25.5 °F23.5 °F92 %29.87 in10.0 miCalmClear
1:55 AM24.3 °F22.6 °F94 %29.86 in10.0 miCalmClear
2:15 AM23.7 °F22.3 °F94 %29.86 in10.0 miWSW (240°)4.6 mphClear
2:35 AM24.1 °F22.5 °F94 %29.86 in10.0 miSW (230°)5.8 mphClear
2:55 AM26.2 °F24.4 °F93 %29.86 in10.0 miWSW (250°)4.6 mphScattered Clouds
3:15 AM25.7 °F23.7 °F92 %29.86 in10.0 miWSW (240°)5.8 mphClear
3:35 AM25.0 °F21.7 °F87 %29.85 in10.0 miCalmClear
3:55 AM23.4 °F21.4 °F92 %29.84 in10.0 miSSW (200°)3.5 mphClear
4:15 AM24.8 °F22.8 °F92 %29.84 in10.0 miSSW (210°)3.5 mphClear
4:35 AM23.9 °F21.9 °F92 %29.84 in10.0 miSouth (180°)3.5 mphClear
4:55 AM23.9 °F21.9 °F92 %29.83 in10.0 miSSW (200°)3.5 mphMostly Cloudy
5:15 AM23.7 °F21.9 °F93 %29.83 in10.0 miCalmScattered Clouds
5:35 AM24.6 °F22.6 °F92 %29.83 in10.0 miCalmScattered Clouds
6:15 AM23.4 °F21.7 °F94 %29.82 in10.0 miSSW (200°)4.6 mphScattered Clouds
6:35 AM23.0 °F21.2 °F93 %29.82 in10.0 miCalmClear
6:55 AM22.8 °F21.2 °F93 %29.82 in10.0 miCalmClear
7:15 AM23.2 °F21.7 °F94 %29.82 in10.0 miSW (220°)3.5 mphClear
7:35 AM24.1 °F22.1 °F92 %29.82 in10.0 miCalmClear
7:55 AM25.3 °F22.8 °F90 %29.82 in10.0 miCalmClear
8:15 AM27.0 °F24.3 °F90 %29.82 in10.0 miCalmClear
8:35 AM28.0 °F25.5 °F90 %29.81 in10.0 miSouth (190°)3.5 mphClear
8:55 AM30.2 °F26.2 °F85 %29.81 in10.0 miSW (220°)4.6 mphClear
9:15 AM32.2 °F27.3 °F82 %29.81 in10.0 miSW (220°)4.6 mphClear
9:35 AM34.5 °F28.9 °F80 %29.80 in10.0 miSSW (210°)3.5 mphClear
9:55 AM38.1 °F28.0 °F67 %29.80 in10.0 miWest (260°)6.9 mphClear
10:15 AM40.3 °F27.9 °F61 %29.80 in10.0 miWest (280°)8.1 mphClear
10:35 AM41.2 °F26.6 °F56 %29.79 in10.0 miWest (260°)5.8 mphClear
10:55 AM42.8 °F26.8 °F53 %29.78 in10.0 miWest (260°)4.6 mphClear
11:15 AM44.2 °F28.0 °F53 %29.78 in10.0 miWSW (240°)9.2 mphClear
11:35 AM46.4 °F28.4 °F50 %29.78 in10.0 miWSW (250°)9.2 mphClear
11:55 AM47.3 °F27.7 °F47 %29.77 in10.0 miWest (260°)11.5 mph16.1 mphClear
12:15 PM48.2 °F27.1 °F44 %29.76 in10.0 miWSW (250°)10.4 mphClear
12:35 PM50.0 °F27.9 °F42 %29.76 in10.0 miWest (260°)11.5 mphClear
12:55 PM50.2 °F27.0 °F41 %29.74 in10.0 miWest (260°)13.8 mphClear
1:15 PM50.9 °F27.5 °F40 %29.73 in10.0 miWest (260°)13.8 mph21.9 mphClear
1:35 PM51.1 °F26.8 °F39 %29.72 in10.0 miWest (260°)16.1 mphClear
1:55 PM52.0 °F26.8 °F38 %29.71 in10.0 miWSW (250°)17.3 mph23.0 mphScattered Clouds
2:15 PM52.9 °F25.9 °F35 %29.70 in10.0 miWest (260°)17.3 mph24.2 mphClear
2:35 PM53.4 °F25.2 °F33 %29.69 in10.0 miWSW (250°)17.3 mph24.2 mphScattered Clouds
2:55 PM52.9 °F24.8 °F34 %29.69 in10.0 miWest (270°)16.1 mph23.0 mphScattered Clouds
3:15 PM52.5 °F24.3 °F33 %29.68 in10.0 miWest (260°)13.8 mph20.7 mphScattered Clouds
3:35 PM52.7 °F23.9 °F33 %29.68 in10.0 miWest (270°)18.4 mph24.2 mphClear
3:55 PM53.1 °F23.7 °F32 %29.69 in10.0 miWest (260°)19.6 mph24.2 mphScattered Clouds
4:15 PM52.3 °F24.8 °F34 %29.69 in10.0 miWest (270°)15.0 mph27.6 mphOvercast
4:35 PM50.7 °F27.5 °F41 %29.69 in10.0 miWest (280°)13.8 mph19.6 mphMostly Cloudy
4:55 PM49.1 °F28.6 °F45 %29.70 in10.0 miWest (280°)18.4 mph27.6 mphMostly Cloudy
5:15 PM48.4 °F29.8 °F49 %29.70 in10.0 miWest (280°)11.5 mphOvercast
5:35 PM47.7 °F30.2 °F51 %29.70 in10.0 miWest (270°)12.7 mph18.4 mphOvercast
5:55 PM46.8 °F30.0 °F52 %29.70 in10.0 miWest (270°)10.4 mphOvercast
6:15 PM44.8 °F29.8 °F56 %29.70 in10.0 miWest (260°)8.1 mphScattered Clouds
6:35 PM43.3 °F30.0 °F59 %29.71 in10.0 miWest (260°)9.2 mphClear
6:55 PM42.6 °F30.0 °F61 %29.71 in10.0 miWest (260°)8.1 mphScattered Clouds
7:15 PM42.4 °F29.3 °F60 %29.71 in10.0 miWSW (250°)9.2 mphMostly Cloudy
7:35 PM42.3 °F29.3 °F60 %29.71 in10.0 miWSW (250°)11.5 mphScattered Clouds
7:55 PM42.3 °F29.3 °F60 %29.71 in10.0 miWest (260°)11.5 mphClear
8:15 PM40.6 °F29.3 °F64 %29.72 in10.0 miWest (260°)9.2 mphClear
8:35 PM41.0 °F29.3 °F63 %29.72 in10.0 miWest (270°)12.7 mphClear
8:55 PM40.3 °F29.7 °F66 %29.73 in10.0 miWNW (290°)11.5 mphClear
9:15 PM40.3 °F30.0 °F67 %29.73 in10.0 miWest (280°)11.5 mphClear
9:35 PM39.6 °F30.0 °F69 %29.73 in10.0 miWNW (290°)10.4 mphClear
9:55 PM40.5 °F30.2 °F67 %29.74 in10.0 miWNW (290°)11.5 mphScattered Clouds
10:15 PM40.1 °F30.2 °F68 %29.74 in10.0 miWest (280°)12.7 mphClear
10:35 PM39.2 °F30.6 °F71 %29.74 in10.0 miWest (280°)13.8 mphClear
10:55 PM39.2 °F30.7 °F72 %29.76 in10.0 miWest (280°)13.8 mphClear
11:15 PM39.9 °F30.6 °F69 %29.76 in10.0 miWNW (290°)15.0 mph20.7 mphClear
11:35 PM39.2 °F30.2 °F70 %29.76 in10.0 miNW (310°)12.7 mph19.6 mphClear
11:55 PM39.0 °F30.2 °F71 %29.77 in10.0 miWNW (300°)12.7 mph17.3 mphClear
Hourly data recorded from KLCG, located miles away from Newcastle, Nebraska







STORIES FROM OUR PARTNERS